Retour au catalogue

FENGYUN 1C DEB

ActifSSO
NORAD 29939·DEBRIS·🇨🇳 China

Lancé May 10, 1999 depuis Taiyuan Satellite Launch Center

Loading…

Prochains Passages (prochaines 24 heures)

TLE

FraisSource: Space-Track

Époque: Sep 14, 2026, 23:19 UTC

1 29939U 99025JM  26257.97169351  .00000004  00000-0  24890-4 0  9991
2 29939  98.7216 254.9048 0067297  74.0438 306.4048 14.12139189 13576

Suivez FENGYUN 1C DEB en temps réel avec AllMySat

Download on the App Store